Wind_Speed
84 84 83 82 81 80 79 79 79 79 80 82 82 80 79 78 77 77 78 77 75 75 74 72 71 70 69 68 68 67 66 65 64 64 61 57 55 53 50 47 46 45 44 43 42 41 40 38 35 32 30 29 29 30 30 30 31 32 33 31 29 27 27 27 27 26 18 15 19 20 18 17 16 16 16 16 15 14 13 12 12 12 10 8 7 7 7 7
85 85 84 84 83 81 80 79 78 78 79 80 81 81 79 78 77 76 77 77 76 75 74 73 71 70 70 69 68 68 67 66 66 65 61 57 57 55 52 49 48 47 45 45 42 41 40 39 37 35 32 29 29 30 29 30 33 33 32 32 30 29 29 28 26 24 18 17 21 21 19 18 17 17 17 17 16 16 14 12 12 13 12 10 9 8 8 8
86 86 85 85 84 83 81 79 79 78 78 78 79 81 79 78 78 76 76 77 76 75 74 74 72 70 70 70 69 68 68 68 68 66 62 60 59 57 54 51 49 48 47 46 44 42 41 40 38 37 35 32 32 31 30 32 33 32 32 31 30 31 30 26 25 23 21 21 21 21 22 20 19 19 19 18 18 17 14 12 12 13 13 12 10 9 8 9
88 87 86 86 85 84 83 81 79 79 78 77 78 79 80 79 78 77 75 76 76 75 74 74 72 70 70 69 69 69 68 70 69 65 62 62 60 57 55 52 51 50 48 48 46 44 43 41 39 38 38 36 35 32 32 33 31 31 31 28 29 32 29 27 27 23 22 23 22 22 24 22 20 20 20 19 19 16 12 12 13 13 14 13 12 11 10 10
90 88 88 87 86 86 85 83 80 79 78 77 77 77 79 80 78 76 75 75 75 75 74 73 71 68 68 69 70 70 70 71 69 64 63 62 59 58 55 53 52 51 50 50 48 46 44 42 40 41 40 39 37 34 33 30 29 31 29 26 29 32 31 31 28 25 23 25 25 25 24 23 23 22 20 21 19 15 13 15 14 14 15 15 14 13 12 11
92 91 89 88 88 87 86 85 82 80 78 77 76 76 78 79 78 75 74 74 75 75 74 73 72 70 68 68 70 72 71 72 68 64 64 63 60 58 56 55 53 53 53 51 49 48 45 44 44 43 41 41 39 35 32 30 30 31 27 25 29 32 33 30 27 28 28 28 29 26 23 25 25 24 21 21 19 16 16 16 15 15 15 16 16 15 13 12
92 93 91 90 89 88 87 86 84 82 79 77 76 75 76 77 78 75 73 73 73 74 74 73 73 72 70 66 68 73 73 72 69 65 64 63 60 59 57 56 55 54 54 51 50 49 47 47 46 44 42 42 40 35 31 31 32 31 28 26 29 32 30 27 27 30 31 31 30 27 25 27 26 24 22 22 21 17 17 16 16 16 17 17 17 16 15 14
89 93 93 92 91 89 89 88 86 84 80 78 76 75 74 75 77 75 72 73 72 73 73 73 74 73 73 68 64 68 71 72 70 66 64 63 61 59 58 58 57 56 54 52 52 50 48 48 47 46 44 42 40 36 33 34 35 32 30 29 30 30 25 24 28 30 32 32 30 28 27 27 27 25 23 24 23 19 17 17 17 18 18 18 18 17 16 16
83 92 95 93 93 91 90 89 88 86 82 79 77 75 74 74 75 74 72 72 71 73 73 73 74 73 74 71 66 63 60 65 70 67 64 64 62 61 60 60 58 56 55 53 53 52 50 49 48 47 45 42 41 38 34 36 37 33 31 34 32 29 26 24 29 31 31 30 28 28 27 27 27 26 25 26 24 20 20 19 19 19 19 19 18 18 18 17
76 85 94 95 94 93 91 90 89 87 84 80 77 75 74 73 72 72 74 72 69 71 73 73 73 74 74 73 72 67 55 57 66 67 64 64 63 62 61 60 58 57 56 54 54 52 50 48 47 47 46 45 44 40 36 38 40 34 33 38 34 29 29 26 30 34 31 30 29 28 28 28 28 27 25 27 25 23 23 21 20 20 20 20 19 19 18 18
75 78 88 94 95 94 93 92 90 89 86 82 79 75 74 73 72 71 73 74 70 70 72 72 72 74 75 73 74 72 61 56 62 66 66 65 64 63 61 59 58 56 55 55 54 52 50 49 48 48 49 47 44 42 41 42 40 34 34 40 36 30 30 29 32 34 32 32 30 29 29 29 29 26 24 27 27 26 25 22 21 21 21 21 20 20 19 19
75 76 81 89 95 95 94 93 91 89 87 84 80 76 74 73 73 72 72 75 73 71 70 70 70 72 74 73 72 73 68 60 61 64 65 66 65 64 63 59 58 57 56 55 54 53 52 51 49 49 48 45 43 44 45 44 40 36 36 39 36 32 34 35 34 32 32 33 30 29 30 30 28 25 25 30 29 27 26 23 22 22 23 22 21 21 20 19
72 74 76 81 90 95 95 94 92 90 88 86 81 77 75 73 73 73 73 75 76 72 69 69 68 69 74 74 70 71 71 65 64 64 63 65 66 66 65 62 61 59 59 58 57 56 55 52 50 49 49 46 46 48 48 44 40 38 37 38 38 37 38 37 35 33 32 31 27 29 30 27 27 27 29 31 29 28 27 25 24 24 24 23 22 21 21 20
69 71 72 74 81 91 95 94 93 91 88 87 83 79 76 74 72 73 74 76 76 71 69 70 69 69 73 75 72 70 71 68 66 65 64 65 66 67 67 65 63 62 62 61 59 58 56 53 51 51 52 50 49 49 47 44 41 39 38 40 42 41 39 36 37 36 32 28 26 30 28 24 27 30 31 31 30 30 29 28 26 25 25 24 23 23 22 22
68 69 70 69 73 82 91 94 94 92 89 86 85 80 77 75 73 72 74 74 74 72 69 69 71 71 72 74 75 71 69 68 64 62 64 65 65 67 67 66 65 64 63 62 60 59 57 55 54 54 55 53 51 50 48 45 43 41 42 44 44 43 39 36 38 38 33 30 28 30 26 22 27 32 33 31 31 32 31 30 28 26 25 24 24 24 23 23
68 68 68 67 67 73 84 92 93 92 89 86 84 81 77 76 74 72 73 73 72 74 71 69 70 71 72 74 78 75 70 69 63 57 59 64 66 66 66 67 67 66 64 62 60 59 58 57 56 56 57 55 53 52 50 47 45 45 46 47 45 43 40 38 39 38 35 33 31 32 28 23 27 32 32 31 33 35 33 32 30 27 26 24 25 25 24 24
68 68 67 65 64 66 75 86 92 91 89 86 84 82 78 76 74 73 73 74 74 75 74 71 70 69 71 73 78 79 73 70 66 58 56 60 64 67 67 68 69 68 65 63 61 60 60 59 59 59 59 57 55 54 53 51 49 48 48 48 47 44 42 40 40 36 34 35 33 35 33 26 26 29 30 32 35 37 35 34 33 30 27 25 24 25 25 24
66 67 66 62 61 63 68 78 87 89 87 85 84 83 79 77 75 73 75 77 76 77 76 74 72 71 71 71 74 77 75 72 67 61 59 60 63 67 69 69 70 68 66 65 63 62 62 62 61 61 61 60 59 57 56 54 51 49 48 50 49 46 44 40 38 36 35 36 37 38 36 30 26 27 29 31 36 38 37 36 35 32 29 26 24 24 24 24
64 66 65 60 58 61 64 70 81 87 86 84 84 84 80 78 77 76 77 80 80 79 78 78 77 75 70 67 68 72 72 70 66 60 62 66 65 66 69 71 71 68 68 68 66 66 66 65 65 65 64 63 61 59 57 54 50 48 49 50 49 47 44 39 37 38 38 38 39 39 38 34 29 28 28 30 34 37 38 38 36 33 31 28 25 23 23 23
59 62 63 59 56 57 61 65 74 83 86 83 83 84 83 81 81 80 80 82 83 81 78 76 76 75 69 64 66 70 71 69 63 57 59 65 68 67 69 72 72 72 71 70 69 69 68 68 68 66 63 61 59 57 56 54 52 50 50 51 50 47 44 41 39 41 41 40 38 38 40 37 30 29 29 29 32 34 35 36 35 34 32 31 29 26 25 23
55 58 60 59 55 55 57 60 66 75 82 83 83 84 85 86 84 81 79 79 82 81 77 72 71 73 69 63 65 72 76 71 61 56 56 59 64 67 69 71 73 75 74 72 72 70 70 70 68 64 61 59 57 56 55 54 53 52 52 52 52 49 45 43 42 44 45 41 38 37 40 40 33 30 31 31 32 31 30 32 33 34 35 34 33 30 29 28
53 55 58 57 55 54 54 55 59 67 75 80 82 82 83 84 83 78 75 77 81 82 79 73 71 71 67 62 66 75 82 73 59 56 57 57 62 67 67 67 70 73 74 75 75 74 74 71 67 63 62 60 58 57 56 55 55 55 54 54 54 51 46 44 46 48 47 42 39 39 41 42 36 32 32 32 31 29 28 30 31 32 34 35 35 33 31 30
54 54 56 56 55 54 54 54 56 60 68 75 78 81 81 81 81 77 76 79 82 83 82 79 76 74 69 63 68 80 85 74 58 54 56 58 63 66 66 66 67 70 74 77 76 76 76 71 67 65 63 63 61 59 59 57 58 57 56 56 56 54 48 46 47 49 48 44 41 41 43 43 39 34 31 31 31 30 29 29 28 28 30 31 32 33 31 29
54 55 55 55 55 54 54 55 55 56 62 69 74 78 80 79 79 79 78 80 83 84 83 83 81 80 76 68 71 82 85 73 58 54 55 57 63 66 67 67 68 71 74 75 74 74 72 69 67 66 66 65 63 61 61 61 60 59 59 58 57 57 52 47 47 50 50 45 42 44 45 44 39 35 31 30 32 32 30 29 28 26 26 26 27 28 26 26
55 56 56 56 56 56 56 57 59 57 58 62 68 75 79 79 79 81 80 79 83 85 84 84 81 82 82 75 75 81 78 68 58 56 54 53 60 66 67 68 70 74 74 72 73 72 70 69 68 67 68 67 65 64 63 62 61 60 60 59 58 60 54 49 51 53 51 47 43 45 47 44 39 35 32 31 33 31 29 29 28 26 24 23 23 23 24 24
56 57 57 57 57 57 59 60 60 59 60 61 63 70 79 80 77 79 81 81 84 87 87 85 81 82 83 80 80 81 74 63 55 53 51 51 57 62 64 67 70 72 70 68 71 71 70 70 69 68 69 68 66 66 64 62 62 62 61 59 59 58 54 51 54 54 51 49 46 46 47 46 42 36 33 32 33 32 30 28 27 26 25 24 23 24 26 26
55 56 57 57 57 58 61 62 61 60 62 63 61 65 74 79 78 77 78 82 86 87 88 87 83 81 82 82 82 84 79 67 55 48 47 49 55 59 63 65 66 67 65 66 71 71 68 69 70 70 70 69 68 67 65 64 63 63 61 59 58 55 52 52 54 56 53 49 49 46 45 47 44 37 31 32 33 32 29 27 25 26 27 26 26 26 27 28
53 53 54 55 56 57 59 61 61 60 59 60 60 61 66 72 78 78 77 83 88 86 87 88 85 81 82 84 85 85 83 76 65 53 44 46 53 59 63 63 62 61 61 65 65 61 62 66 68 70 71 71 70 67 65 64 63 64 61 56 56 54 54 56 57 57 55 52 50 47 46 48 47 39 32 32 34 31 27 25 25 26 27 27 27 26 27 28
52 51 50 51 55 58 59 60 61 60 58 56 57 58 60 65 73 78 77 83 88 86 86 88 87 84 83 87 88 87 86 81 73 62 50 48 54 59 63 64 63 61 61 63 62 57 59 62 62 67 70 70 69 67 65 63 62 63 60 56 55 57 58 59 59 58 58 56 51 46 47 50 49 44 37 33 33 30 25 25 26 24 25 27 27 25 24 24
49 50 48 50 54 55 56 57 59 58 55 54 55 58 61 64 69 74 78 83 86 86 86 87 89 89 84 85 88 88 89 83 75 70 60 51 54 57 59 62 63 65 65 64 64 64 63 62 63 66 66 65 66 66 65 64 62 60 59 59 60 59 58 57 57 57 59 59 53 48 48 51 51 48 43 37 32 29 27 26 25 23 24 26 26 25 22 21
46 47 47 49 52 52 53 56 57 54 53 55 59 62 61 60 64 72 78 84 86 86 87 87 90 93 87 84 85 87 89 85 79 78 65 50 52 56 57 61 63 64 68 67 66 67 66 66 67 67 65 64 65 66 66 67 67 64 62 62 61 60 58 57 56 57 61 61 55 52 52 54 53 50 47 40 29 25 28 26 25 26 27 26 25 25 23 21
47 48 48 49 49 50 52 55 55 53 54 56 58 62 61 57 60 69 75 80 83 86 89 87 89 93 90 84 84 84 87 88 85 83 71 52 51 57 57 60 63 64 68 70 69 68 66 67 67 67 67 66 66 67 67 69 70 70 68 66 64 62 61 61 61 61 63 61 57 56 57 57 55 50 49 44 31 24 28 28 27 28 27 26 26 26 24 23
49 50 51 49 48 48 50 52 54 55 56 56 55 58 62 61 60 64 72 76 79 85 88 86 86 91 93 88 85 83 82 84 84 85 81 63 53 59 60 57 60 64 66 67 69 69 67 66 68 71 72 69 69 70 70 70 70 69 68 67 66 66 65 65 65 65 64 61 58 59 60 59 55 50 49 49 36 27 29 31 29 28 27 26 27 27 26 25
50 51 51 49 48 48 48 50 53 55 56 57 56 58 62 65 60 59 68 73 75 81 85 86 85 89 95 92 86 82 77 78 81 84 87 77 61 60 65 64 61 62 65 65 67 70 71 71 70 71 73 73 71 70 69 67 66 65 65 67 68 67 67 66 64 64 62 60 60 61 63 60 56 52 50 49 41 30 30 33 31 29 28 27 27 27 26 25
49 50 50 49 49 49 48 50 54 55 54 54 56 58 62 63 58 56 64 70 71 77 82 85 86 88 96 96 88 82 75 75 79 82 86 82 69 61 63 68 67 63 65 66 66 67 70 74 72 69 69 73 74 72 69 68 68 67 66 68 69 68 67 65 64 63 62 62 63 64 64 61 57 54 52 51 46 35 31 33 32 30 29 28 28 26 27 27
49 49 49 49 49 49 50 53 56 55 53 52 53 55 57 59 57 55 60 65 69 73 77 81 85 89 95 97 93 86 78 73 75 81 86 77 67 63 60 61 64 64 66 66 65 65 66 69 73 70 68 70 74 73 71 70 70 70 70 71 70 68 68 68 67 66 65 66 66 65 64 62 59 58 55 52 50 40 32 33 33 31 29 28 28 27 27 30
48 48 48 48 48 50 52 53 53 53 50 50 51 51 50 53 55 54 56 60 64 70 74 76 81 88 95 98 97 91 83 75 71 79 90 77 63 65 62 54 55 60 65 65 63 62 62 64 68 71 71 70 71 71 70 70 70 70 71 70 68 68 69 68 67 67 66 67 66 64 64 62 61 61 57 54 51 44 36 36 34 31 30 29 28 28 29 31
46 47 48 50 49 50 53 51 48 47 45 44 47 49 48 50 50 50 52 55 59 66 72 74 76 83 93 96 98 96 87 78 72 77 90 84 68 65 64 57 50 52 60 65 61 60 61 61 63 67 71 72 70 69 68 67 67 68 67 65 66 69 69 68 67 67 66 67 67 66 65 65 64 62 58 54 50 44 40 40 36 31 30 31 30 31 33 34
45 46 48 50 50 49 51 50 44 43 44 43 43 45 46 47 47 47 48 50 55 61 66 71 73 77 88 95 97 98 93 83 75 76 86 88 78 69 65 59 51 46 52 61 63 61 60 61 62 63 66 71 73 72 71 69 67 67 67 66 67 68 67 68 68 67 67 67 67 67 67 67 64 61 59 55 50 44 43 42 39 34 32 33 34 34 35 36
44 45 46 47 48 48 48 47 43 41 44 44 44 44 44 45 46 46 46 46 51 56 60 65 69 72 82 92 95 97 97 89 79 75 82 88 85 77 70 64 55 45 46 56 62 62 62 62 63 63 65 70 74 75 74 73 72 71 69 69 69 69 69 69 68 68 68 67 67 68 70 68 64 62 61 56 50 46 44 43 41 39 36 36 39 40 39 37
42 42 42 44 45 46 46 45 44 42 43 44 44 45 45 46 45 45 46 45 46 50 53 56 62 68 76 87 92 94 97 93 84 77 79 85 88 85 77 70 62 50 46 54 61 61 62 64 64 65 68 70 71 71 71 72 72 71 70 69 69 69 70 70 70 69 67 67 66 67 71 69 64 62 61 56 50 46 44 42 41 43 42 41 42 41 39 37
40 39 40 41 42 43 44 44 44 44 43 42 42 43 44 45 45 44 46 47 45 46 49 49 50 57 70 81 84 85 92 95 89 81 78 82 88 88 81 73 67 57 50 53 57 57 59 63 64 65 66 67 67 66 66 67 66 67 69 69 68 69 70 69 69 67 66 66 65 65 70 69 62 60 59 57 53 49 45 44 44 46 48 45 41 38 37 38
39 38 39 40 40 41 42 42 44 46 45 43 42 43 44 44 45 45 45 47 46 45 47 49 46 46 59 76 80 77 81 88 91 86 79 79 84 84 81 75 68 59 53 54 57 58 60 62 63 64 65 67 67 63 62 63 64 67 69 68 68 69 68 67 67 66 67 67 66 66 70 68 62 57 56 57 55 50 46 46 47 48 49 47 41 37 38 39
39 39 39 40 40 41 41 41 43 45 46 45 46 47 47 45 44 45 45 45 46 45 46 50 51 48 49 63 75 78 77 81 87 88 81 77 81 83 79 75 71 62 54 53 55 57 60 62 62 62 63 66 68 68 67 66 66 66 65 64 64 64 63 65 65 66 69 68 67 68 69 67 64 58 56 58 56 49 46 47 49 48 47 45 43 41 42 41
40 40 41 41 41 41 41 42 42 43 43 44 46 46 45 43 43 44 44 44 43 44 45 46 51 53 51 54 62 71 79 81 83 85 79 69 72 81 80 75 73 65 55 51 51 52 58 62 61 61 62 64 65 66 65 64 62 62 62 60 60 60 61 63 63 68 70 67 67 70 67 64 64 62 60 60 57 50 48 48 49 47 45 44 44 45 46 46
40 41 42 43 43 42 41 41 42 42 42 42 42 41 40 41 41 41 42 42 42 42 43 44 46 50 55 57 56 58 69 80 83 86 80 63 57 68 76 75 74 70 60 54 51 51 57 61 62 61 60 58 57 56 55 56 57 58 58 57 57 58 60 62 66 69 66 63 67 69 62 57 59 60 60 59 55 51 49 48 46 44 43 43 45 48 51 52
40 41 42 43 44 44 43 43 42 42 41 42 41 40 40 40 40 41 41 41 42 41 41 43 44 46 50 57 60 57 58 68 79 87 86 68 52 55 62 64 67 71 70 65 60 58 59 60 60 61 59 56 56 55 53 54 54 53 54 57 58 58 59 62 64 62 58 61 66 60 53 53 54 53 52 53 51 48 46 46 44 42 43 46 49 52 55 55
41 41 42 42 42 42 42 43 44 43 42 43 43 42 42 42 41 42 41 41 42 42 42 43 43 43 44 50 59 62 59 60 69 82 88 73 53 48 51 50 52 62 72 74 70 70 69 63 57 56 58 58 58 57 55 55 54 52 53 56 58 59 60 60 59 55 54 60 59 49 47 51 48 44 44 45 47 46 45 46 45 45 47 49 52 55 56 55
41 42 42 43 43 43 42 41 41 41 41 41 43 44 44 44 43 42 41 42 42 42 42 43 41 40 40 43 51 59 63 64 66 75 84 77 58 46 45 45 44 50 61 67 69 72 74 70 63 57 54 56 57 57 57 56 55 53 53 54 56 59 59 58 56 52 52 56 52 43 46 48 43 40 41 43 47 50 49 48 48 48 50 52 54 55 53 52
43 43 44 44 45 45 45 44 43 42 41 41 42 41 40 41 41 41 41 42 42 41 40 39 38 38 39 42 47 53 57 62 66 68 75 79 68 51 44 43 44 46 52 56 60 64 68 72 73 67 61 57 55 55 55 55 55 55 53 53 54 56 58 57 54 50 50 52 45 40 46 47 40 39 42 44 48 50 49 48 49 49 50 52 52 52 51 50
43 44 45 46 46 46 46 46 46 46 46 45 44 43 41 40 38 38 40 39 39 39 37 35 34 35 37 40 45 49 50 54 62 64 68 76 76 65 56 50 48 49 51 52 55 57 60 67 74 77 76 68 58 55 56 53 53 56 56 54 54 55 56 54 49 46 48 48 44 44 47 41 35 38 42 43 46 48 47 47 48 49 50 50 48 49 50 48
43 44 46 46 46 47 47 47 47 47 47 46 45 45 44 43 41 41 41 39 38 36 33 32 31 33 37 39 41 44 45 46 53 59 64 71 76 77 72 63 55 52 51 52 53 54 57 61 65 73 80 78 71 68 63 59 59 60 56 53 52 52 51 51 49 49 50 49 47 47 40 31 31 37 40 41 44 45 45 46 49 50 50 49 47 49 49 46
Wind_Direction
221 221 221 221 222 222 224 224 224 223 222 221 221 222 222 222 222 220 220 220 220 220 222 222 222 221 220 219 219 220 219 218 217 216 213 214 217 218 218 218 219 218 218 220 219 219 220 222 221 221 223 225 225 219 214 220 223 221 218 218 218 217 217 216 219 222 210 207 220 220 221 225 230 234 235 237 236 237 240 242 249 248 237 223 225 240 244 244
221 221 221 220 221 222 223 224 224 224 223 222 221 221 222 222 222 221 220 220 220 220 221 222 222 222 221 220 220 220 221 219 218 216 214 216 217 218 218 218 219 220 220 221 221 221 222 223 223 223 223 223 225 220 215 221 224 224 222 220 220 220 220 218 222 222 207 208 220 220 220 222 227 233 235 236 236 236 237 237 243 246 237 224 217 223 232 236
221 221 221 220 220 221 222 223 224 225 224 223 222 221 221 222 222 221 220 219 219 219 220 222 222 222 222 221 221 221 221 221 217 215 215 217 216 217 218 218 219 220 220 222 222 222 223 223 223 224 222 221 224 220 214 220 225 225 225 221 220 223 221 218 224 221 211 212 218 221 220 220 224 230 234 235 236 236 236 237 242 246 242 232 220 217 226 231
222 221 221 221 220 220 221 222 223 224 225 224 222 221 221 222 223 222 221 220 219 219 219 220 222 222 223 222 222 222 222 222 217 215 218 218 217 218 219 219 220 221 221 222 222 222 223 223 223 225 224 221 222 220 217 220 224 227 227 222 220 224 221 216 219 216 217 219 217 222 221 218 223 227 231 235 236 237 238 240 241 243 243 237 226 220 221 228
222 221 221 221 220 220 221 222 222 223 224 224 223 222 221 222 222 222 222 221 220 219 218 219 220 221 224 223 223 222 222 222 217 216 220 220 219 219 220 221 221 221 221 222 222 222 223 223 223 224 224 223 222 221 221 221 226 231 229 223 222 224 220 216 214 211 218 225 221 222 222 220 223 225 228 235 238 236 236 238 237 238 240 240 233 226 221 223
223 222 221 220 220 220 221 222 222 222 223 223 223 222 222 222 222 222 222 222 221 219 218 218 218 218 221 224 225 224 222 222 217 217 221 220 220 220 220 222 222 222 222 222 223 222 222 222 223 224 225 225 224 221 222 223 226 233 231 226 226 225 221 215 213 213 217 225 225 222 223 224 224 226 228 234 237 233 235 238 238 239 241 242 239 232 226 222
224 222 221 220 220 220 220 221 222 222 222 223 223 222 221 221 222 221 222 223 221 220 219 217 218 216 217 220 224 225 223 221 218 218 222 222 221 221 221 222 222 222 223 223 224 224 222 223 224 226 226 226 227 223 222 225 227 232 232 228 231 229 222 214 216 219 219 223 225 221 223 226 226 227 230 234 235 230 232 237 237 238 240 243 243 239 233 226
223 222 221 220 220 219 219 220 222 222 222 222 223 222 220 220 221 221 221 223 222 221 220 218 217 216 215 216 220 225 223 222 220 218 222 223 223 223 222 222 223 222 223 224 224 225 224 224 226 227 228 228 230 226 222 226 227 230 234 233 233 235 226 216 222 225 222 223 223 221 222 226 227 228 231 235 235 231 232 234 235 236 237 241 243 242 239 233
221 222 221 220 220 219 219 220 221 222 222 222 222 222 220 219 219 219 219 221 222 221 221 220 217 216 216 215 219 224 222 222 222 220 221 223 224 224 223 223 223 223 224 225 224 225 224 225 226 228 229 229 231 229 224 229 229 226 234 237 234 237 234 223 227 230 226 224 222 220 221 224 227 227 231 236 235 233 233 233 235 236 236 239 242 242 242 238
218 220 220 219 219 219 218 219 220 221 222 222 221 221 220 218 217 217 218 219 221 221 220 220 218 217 216 214 218 221 218 220 222 221 222 223 225 225 225 224 224 224 225 225 225 226 226 226 227 228 228 228 229 229 226 229 230 222 228 239 235 235 239 232 232 233 229 227 221 220 220 221 225 225 231 238 238 235 234 232 234 238 238 239 241 242 242 241
216 218 219 219 219 219 218 218 219 220 221 222 221 220 220 219 215 215 217 218 219 221 220 220 219 218 216 215 216 218 217 220 221 221 221 222 225 225 226 226 226 226 226 227 227 226 227 227 227 228 229 228 229 229 228 229 230 224 226 239 238 234 241 239 236 235 231 228 222 219 219 219 222 221 228 238 239 237 234 231 233 238 240 240 242 243 243 242
216 217 218 218 218 218 218 218 218 219 220 221 221 220 219 219 216 213 215 217 218 219 219 218 219 219 217 216 216 216 217 220 220 220 220 220 223 225 225 226 226 227 227 227 228 227 226 227 227 229 230 230 231 231 231 230 231 228 226 236 240 235 238 239 239 237 234 231 224 222 220 217 219 215 223 234 237 239 237 233 233 236 240 241 242 244 245 243
217 217 218 218 218 218 218 217 218 219 220 221 221 220 218 218 217 213 212 215 217 218 219 218 218 219 218 215 214 215 217 219 219 219 219 219 221 223 223 224 224 225 226 226 227 226 226 226 227 229 230 228 229 231 232 232 231 231 230 235 239 235 235 239 242 241 238 236 230 229 224 217 218 214 220 232 236 239 241 237 233 234 238 241 242 244 247 247
217 216 216 218 218 218 218 217 217 218 219 220 221 220 218 217 216 213 211 213 216 217 219 219 219 219 219 214 212 214 216 219 221 220 218 218 220 222 223 223 224 224 225 225 225 226 226 226 226 227 228 227 228 230 232 232 230 232 233 234 236 235 235 238 243 244 242 242 238 237 229 216 220 219 219 228 234 237 241 240 236 234 237 240 243 244 246 248
217 217 216 217 219 218 218 217 217 218 218 219 221 220 218 217 215 213 211 212 214 215 217 218 218 219 220 215 211 212 214 217 220 221 219 218 219 222 223 224 225 225 225 225 225 226 226 226 226 226 227 227 228 230 231 231 229 229 231 233 234 235 236 237 242 244 244 245 243 242 235 216 221 224 219 222 232 236 240 243 240 237 238 239 243 246 246 248
217 217 216 216 218 219 218 217 217 218 218 219 220 220 218 217 215 214 211 210 212 215 215 215 214 217 220 217 213 212 212 214 216 219 219 217 218 220 223 224 226 225 225 225 226 226 227 227 226 227 227 227 227 229 230 230 228 229 231 233 234 235 237 237 239 243 245 247 246 246 241 221 220 226 222 219 228 236 238 243 245 241 240 240 242 245 247 248
215 215 216 216 218 219 219 218 217 217 218 218 220 219 218 217 215 213 210 207 209 213 214 214 213 214 217 217 214 212 212 214 216 219 220 217 217 219 221 223 224 224 225 226 226 227 228 228 228 227 228 227 227 229 229 229 229 230 232 235 235 234 235 235 238 242 246 248 247 247 243 230 224 227 226 222 226 235 238 242 246 245 241 240 242 245 247 249
213 213 214 216 217 219 219 218 217 217 218 218 219 219 217 217 215 213 210 205 206 209 212 215 212 211 215 216 214 213 213 216 220 223 225 222 218 219 221 223 224 223 224 226 226 227 228 227 228 228 227 227 227 228 229 230 231 232 234 236 236 236 236 236 240 242 243 246 247 246 244 238 233 230 227 225 226 232 238 240 244 246 244 241 241 246 248 250
211 212 212 214 215 217 218 218 217 217 217 217 218 218 216 215 214 211 208 205 205 207 209 214 213 211 214 215 214 212 211 216 220 220 223 225 222 221 221 223 223 222 223 224 225 226 226 227 228 227 227 227 228 230 231 232 233 233 234 237 239 239 239 240 243 242 239 242 245 247 247 241 236 235 230 228 229 231 236 240 243 246 248 245 240 243 248 250
209 210 211 213 214 215 216 218 218 217 217 217 218 217 216 214 212 210 208 205 205 206 207 213 215 214 215 215 213 209 207 211 216 216 217 223 225 223 223 223 223 222 222 223 224 225 226 227 227 227 228 229 230 232 233 234 234 234 234 236 238 239 241 242 244 244 241 240 243 246 250 245 237 238 237 232 232 233 235 240 243 245 248 248 243 240 244 249
208 209 210 212 212 213 215 217 218 217 218 218 218 218 217 216 214 212 210 207 206 206 207 212 214 213 214 213 210 206 206 210 216 214 211 216 222 222 223 223 223 223 223 222 223 224 226 227 226 227 228 230 232 233 234 235 235 235 236 237 237 237 240 243 242 243 243 242 242 244 249 249 240 237 240 237 236 236 237 241 243 243 245 248 247 244 245 249
208 208 209 210 210 211 212 215 216 217 218 219 220 219 218 217 216 214 213 210 208 207 207 210 213 212 211 210 205 202 205 211 215 212 208 210 216 220 223 224 225 226 225 224 223 223 225 225 224 226 228 229 230 231 233 234 236 237 237 238 239 238 238 241 241 242 244 244 244 244 245 248 245 239 240 242 242 241 240 241 242 243 243 245 248 249 249 251
207 206 206 207 207 208 210 213 215 216 218 220 220 220 219 217 215 213 212 211 210 208 208 210 212 211 209 208 204 202 205 210 212 209 207 210 214 219 223 225 225 226 226 226 225 225 225 224 224 225 227 228 228 229 230 232 233 235 236 237 239 239 237 239 241 243 245 244 245 245 243 244 245 242 241 244 245 244 242 242 243 244 244 244 246 249 251 251
205 205 204 204 205 206 207 210 212 212 215 219 220 220 219 217 215 213 212 211 210 209 209 210 212 211 210 209 205 203 205 210 210 206 206 211 215 218 221 223 223 223 226 227 227 228 227 226 226 226 227 228 228 228 228 230 232 233 234 235 237 239 238 238 242 244 245 245 245 245 243 242 243 243 242 245 246 245 245 247 247 247 247 246 247 250 254 254
203 204 204 204 204 205 206 207 209 209 210 215 218 219 219 217 215 214 213 212 211 210 208 208 211 212 211 210 206 202 205 209 207 203 206 212 216 217 219 221 220 219 223 226 227 228 227 226 226 227 228 228 228 229 229 230 232 233 234 235 237 239 240 240 242 244 244 245 244 244 244 241 241 243 242 244 247 248 248 251 253 254 254 253 251 251 253 254
202 204 204 204 204 204 207 208 208 207 208 211 213 216 218 217 216 216 214 213 212 211 209 207 208 210 211 211 206 201 203 205 201 200 207 213 216 217 219 221 220 218 220 223 225 226 225 225 225 226 228 229 229 230 230 231 233 235 235 235 237 240 243 244 244 245 245 245 244 244 245 242 239 240 242 244 247 250 250 251 256 260 260 257 253 252 252 254
203 205 205 205 205 205 208 210 210 209 209 211 213 214 216 216 216 215 214 214 214 211 209 207 207 208 210 210 208 207 206 202 200 202 209 213 214 216 218 221 220 217 218 220 222 224 224 224 224 225 227 228 229 230 231 232 234 235 236 237 239 240 242 244 245 246 245 244 245 244 245 244 240 237 240 246 249 250 253 255 258 260 261 259 255 253 255 257
204 206 206 206 206 207 210 211 211 211 210 211 214 213 212 213 215 215 214 215 214 211 208 207 206 207 209 209 210 215 213 207 210 214 214 214 214 215 216 219 220 219 220 222 223 224 224 226 226 226 226 227 228 230 231 233 234 235 236 237 240 239 238 240 243 245 244 242 244 245 245 245 241 236 235 242 249 251 255 258 258 258 260 262 261 257 257 259
204 205 206 206 205 206 210 210 208 209 209 211 213 211 209 210 213 214 215 216 215 211 209 208 206 205 208 210 212 218 219 216 218 218 218 218 214 213 214 215 219 221 224 228 228 227 225 225 226 226 227 228 229 229 230 232 234 236 236 234 235 236 237 239 242 244 245 243 240 242 245 244 241 238 235 236 245 252 254 256 257 259 263 265 266 264 262 263
199 201 203 203 200 200 204 207 206 207 208 209 209 206 207 210 212 211 212 215 214 213 210 208 207 206 207 210 213 218 221 220 219 216 218 218 211 210 213 214 217 221 225 229 230 230 228 227 227 227 227 227 229 231 231 232 232 233 234 233 234 236 238 240 243 245 248 244 238 238 243 244 241 239 237 234 240 251 253 254 258 260 260 262 267 271 271 268
191 195 197 198 197 195 198 201 204 204 203 205 205 202 203 208 211 211 212 214 214 214 212 209 208 207 207 209 213 217 221 221 218 216 217 214 209 208 210 213 216 219 223 227 228 228 228 228 228 230 230 228 228 231 232 232 232 230 232 235 236 238 239 240 242 244 246 242 237 237 240 242 240 238 240 236 233 247 255 254 255 256 258 263 269 272 274 274
187 191 194 196 197 196 197 200 203 203 201 202 204 203 203 208 212 212 212 214 215 216 214 210 209 209 208 209 211 215 220 221 218 218 218 214 213 211 208 211 214 216 219 223 225 227 228 228 229 230 232 230 228 228 228 229 230 230 233 236 238 238 238 239 240 242 245 243 240 240 242 242 238 238 244 243 237 245 254 256 257 258 262 264 267 271 275 280
188 191 194 197 199 199 200 202 203 203 202 202 205 206 207 211 214 212 211 211 214 217 216 212 210 209 209 209 210 212 218 221 220 220 221 219 217 215 213 213 215 218 220 221 223 226 227 228 228 228 229 229 228 228 229 231 232 232 233 236 238 239 239 239 240 241 243 243 242 243 245 243 239 238 244 248 249 248 250 256 259 260 262 263 266 271 275 279
190 192 195 198 201 202 203 204 203 201 201 201 204 207 208 213 215 213 211 210 212 216 217 214 211 210 211 210 211 212 216 220 221 221 221 221 219 215 214 216 216 218 220 220 221 223 225 226 227 227 228 229 230 232 233 235 237 237 236 237 238 239 240 241 242 243 244 245 244 245 246 244 240 239 242 247 252 251 247 251 256 259 262 265 267 270 272 275
192 194 196 199 201 202 202 200 198 197 197 199 202 207 209 212 214 214 212 210 211 215 217 216 213 212 213 213 212 214 217 220 222 221 219 222 223 215 212 216 216 215 217 218 218 220 224 227 229 230 230 230 230 232 232 231 233 234 234 235 236 237 239 241 242 243 244 244 243 244 245 242 240 240 240 245 250 252 251 251 255 259 262 264 266 267 270 273
194 195 196 198 198 199 198 197 195 195 196 198 201 205 208 210 212 214 213 211 212 215 217 217 215 213 215 216 214 214 216 218 222 221 217 220 224 219 213 212 214 214 215 217 219 219 221 225 228 231 232 232 231 232 231 230 230 231 230 231 233 235 238 239 240 241 242 242 242 243 243 243 243 242 241 244 247 251 254 255 257 259 259 261 263 266 268 272
194 194 195 195 194 195 196 195 195 196 198 201 203 204 206 208 210 212 212 212 213 215 217 218 216 214 215 218 217 215 215 217 220 219 216 217 220 219 216 212 211 215 216 218 221 221 222 224 226 228 229 231 232 233 232 231 231 232 232 232 233 233 235 237 239 241 242 244 244 244 244 245 245 243 243 245 248 251 255 257 257 257 257 260 262 265 269 273
193 193 193 194 193 193 193 193 194 196 197 201 204 205 206 208 210 210 212 213 213 215 217 219 218 216 215 218 218 216 216 216 218 217 216 217 219 218 218 214 212 216 217 218 222 223 224 226 227 228 229 229 229 229 229 228 229 231 233 234 235 235 236 238 240 241 243 245 245 245 245 245 244 243 244 246 248 252 255 256 257 256 256 260 263 267 271 274
193 193 192 192 192 192 193 192 191 194 198 200 201 204 206 207 208 210 211 212 214 216 218 219 219 217 216 218 219 218 217 217 218 219 217 219 220 218 217 216 215 217 217 219 223 225 226 227 228 229 230 230 228 226 226 225 226 229 229 231 233 235 237 239 240 242 244 245 246 247 246 245 244 245 247 248 249 251 252 254 256 258 259 262 266 269 272 273
192 192 191 191 191 191 192 192 191 194 200 202 202 204 205 207 208 209 209 209 212 216 217 218 220 219 217 219 220 220 219 218 219 221 220 220 221 220 218 218 217 218 221 221 223 226 227 229 230 230 230 230 229 228 229 229 230 232 234 235 237 238 238 238 238 239 240 242 244 245 246 244 244 246 248 249 250 252 252 253 256 259 262 265 267 269 270 270
191 192 191 191 192 192 192 194 194 196 200 202 204 205 206 208 209 210 209 209 211 214 215 217 221 221 218 219 222 222 221 220 219 221 222 221 221 222 220 220 220 223 226 224 223 225 227 229 231 231 231 232 232 231 232 233 234 236 239 240 242 242 240 239 239 239 240 242 244 246 247 244 243 246 249 250 252 253 255 257 258 260 263 264 265 265 266 267
193 193 192 193 195 195 196 197 197 199 201 203 205 206 208 210 211 212 212 211 211 212 211 212 218 221 219 219 222 223 223 222 220 221 223 222 222 223 223 222 223 226 229 226 224 225 227 229 230 232 234 234 232 230 231 232 234 236 237 237 238 239 238 239 241 242 243 245 245 248 250 245 244 249 252 252 253 254 256 259 259 260 261 262 262 261 262 265
195 195 195 196 197 198 199 200 201 202 203 203 205 207 208 209 211 213 214 214 213 213 211 208 209 215 217 219 222 223 222 222 221 221 223 222 221 222 224 222 220 224 227 224 224 224 226 228 229 230 233 233 231 229 229 231 233 233 235 235 236 238 239 240 242 243 244 244 244 246 248 245 244 249 253 253 254 254 255 257 257 259 260 261 261 261 261 265
197 197 198 198 200 201 202 202 204 205 205 205 206 207 208 209 210 213 214 216 216 216 215 213 211 212 214 218 222 223 221 221 221 222 223 224 222 221 223 221 217 220 223 222 223 225 227 229 229 229 229 230 230 230 229 230 231 233 234 236 237 239 240 241 242 242 242 242 242 243 245 244 244 246 248 251 252 252 253 255 255 256 258 260 262 263 264 266
200 200 200 201 202 203 204 204 205 207 208 209 210 210 211 212 213 214 215 216 216 216 217 216 215 215 214 216 220 223 222 221 221 221 221 224 225 225 226 224 219 217 220 221 225 229 231 231 231 230 230 230 230 230 231 232 234 235 234 235 237 239 240 240 241 241 242 242 242 243 244 243 244 246 246 248 250 251 252 253 254 256 258 259 261 263 266 268
204 204 204 204 204 205 206 207 208 208 209 211 213 214 214 215 216 217 218 218 219 219 219 219 219 218 217 217 217 220 222 223 223 222 219 218 224 226 228 229 225 220 218 220 222 228 233 234 233 233 233 235 237 237 237 239 239 238 236 235 236 237 237 238 238 240 241 241 243 245 245 243 243 245 248 249 250 250 251 252 254 256 257 258 260 264 266 268
206 206 207 207 208 208 208 209 210 211 211 211 211 211 212 214 215 216 217 219 221 222 223 223 222 222 221 219 218 219 221 223 225 224 219 215 218 222 222 225 227 222 222 224 223 226 232 235 234 235 235 236 239 240 240 241 242 241 239 239 238 239 239 240 241 241 242 243 243 245 246 245 242 242 247 250 251 250 250 252 253 253 254 256 259 261 262 263
210 209 208 209 210 211 212 212 211 211 211 212 211 211 211 212 214 216 218 221 223 224 226 227 226 226 225 222 221 221 221 222 225 225 221 215 215 216 213 215 220 220 224 228 228 229 233 234 233 234 235 236 238 240 240 240 241 240 240 239 239 241 243 244 245 246 247 248 248 247 249 250 245 240 241 247 250 249 247 246 247 247 249 252 254 256 258 259
213 213 211 211 211 211 212 213 212 212 211 211 212 213 213 215 216 218 220 223 225 227 229 230 230 230 228 225 224 224 223 223 225 226 222 216 214 215 213 213 215 216 222 228 230 232 235 234 233 233 233 234 236 239 240 240 241 241 240 238 237 238 241 243 245 245 248 250 249 246 245 245 240 236 233 236 241 243 243 243 244 244 245 247 250 253 255 258
216 215 214 214 214 213 213 213 214 215 214 214 214 215 216 218 219 222 224 226 228 229 231 233 233 233 231 227 226 226 225 225 225 227 224 218 217 219 219 220 220 217 219 225 229 232 234 236 235 234 235 235 235 236 238 240 241 242 242 241 239 239 239 240 241 241 244 248 246 242 242 239 235 232 229 227 233 240 243 245 244 243 243 244 248 251 253 258
218 219 218 217 216 216 217 217 217 218 217 217 216 216 218 220 222 226 228 229 229 229 231 231 231 232 230 228 227 226 226 225 224 225 224 220 219 221 223 226 227 221 218 221 227 231 233 235 236 236 236 236 235 238 241 241 241 241 241 240 240 240 239 239 241 242 245 248 247 244 242 239 234 233 232 230 232 238 242 244 245 245 244 244 246 249 253 257
219 220 221 221 220 219 219 219 220 221 221 221 220 220 221 221 222 224 225 226 228 228 229 227 225 226 227 227 227 225 226 227 224 224 224 221 221 222 224 229 232 226 220 219 222 228 231 233 235 236 236 236 238 241 243 243 243 242 239 237 239 241 242 244 245 245 244 244 244 244 243 239 237 236 234 234 235 236 239 242 245 246 247 247 247 248 252 256
Height
5622 5628 5633 5639 5644 5650 5656 5661 5668 5673 5679 5686 5691 5697 5703 5709 5715 5721 5727 5733 5739 5745 5749 5754 5760 5765 5770 5774 5777 5780 5783 5787 5791 5793 5800 5806 5809 5811 5814 5818 5820 5823 5825 5826 5828 5831 5833 5836 5838 5840 5842 5845 5847 5849 5851 5853 5854 5854 5854 5856 5858 5860 5861 5862 5863 5865 5868 5870 5870 5871 5872 5874 5875 5876 5877 5877 5878 5878 5879 5880 5880 5880 5880 5880 5881 5881 5882 5883
5615 5621 5627 5632 5638 5644 5650 5656 5662 5667 5673 5680 5686 5692 5698 5703 5709 5715 5721 5727 5733 5740 5745 5750 5755 5760 5766 5770 5773 5776 5779 5784 5786 5791 5798 5802 5804 5807 5811 5815 5817 5819 5822 5824 5827 5830 5832 5834 5837 5838 5839 5842 5845 5847 5850 5851 5851 5852 5853 5854 5857 5858 5858 5860 5862 5864 5867 5868 5868 5869 5871 5872 5873 5874 5875 5876 5877 5877 5878 5880 5880 5880 5880 5880 5880 5880 5881 5882
5607 5614 5620 5626 5632 5638 5644 5650 5656 5662 5668 5675 5681 5687 5693 5698 5703 5710 5716 5722 5728 5735 5741 5746 5751 5756 5761 5766 5770 5772 5775 5778 5782 5789 5795 5797 5800 5805 5808 5811 5814 5816 5819 5821 5824 5827 5830 5832 5835 5835 5837 5839 5841 5845 5847 5848 5849 5851 5851 5853 5856 5855 5856 5860 5861 5863 5865 5866 5867 5868 5869 5870 5871 5873 5874 5874 5875 5876 5878 5879 5879 5880 5879 5879 5879 5879 5880 5881
5600 5607 5614 5620 5626 5632 5638 5644 5650 5656 5662 5669 5675 5681 5687 5692 5698 5705 5711 5717 5723 5729 5736 5741 5747 5752 5757 5762 5765 5768 5772 5773 5779 5789 5792 5794 5798 5802 5805 5808 5811 5813 5816 5818 5821 5824 5827 5830 5833 5833 5834 5836 5838 5842 5844 5846 5849 5849 5850 5853 5854 5853 5855 5858 5858 5861 5863 5864 5866 5866 5867 5869 5870 5870 5872 5873 5874 5876 5878 5879 5879 5879 5879 5879 5879 5879 5879 5880
5593 5600 5607 5613 5620 5626 5632 5638 5645 5650 5657 5664 5670 5676 5682 5687 5693 5700 5706 5712 5718 5724 5731 5736 5743 5750 5753 5757 5760 5763 5767 5769 5779 5788 5788 5791 5796 5799 5803 5805 5807 5810 5812 5815 5818 5822 5825 5828 5830 5830 5831 5833 5835 5839 5842 5846 5848 5848 5850 5853 5852 5851 5852 5854 5857 5860 5861 5862 5864 5864 5866 5868 5868 5868 5870 5871 5873 5876 5877 5877 5878 5878 5878 5879 5879 5879 5879 5879
5585 5593 5600 5607 5614 5620 5626 5632 5639 5645 5651 5658 5664 5671 5676 5682 5689 5695 5701 5707 5714 5720 5725 5731 5738 5744 5748 5752 5754 5757 5762 5768 5778 5785 5785 5788 5793 5796 5800 5802 5804 5806 5809 5812 5815 5818 5822 5824 5825 5827 5829 5831 5833 5837 5841 5845 5846 5846 5850 5851 5850 5849 5849 5853 5856 5857 5858 5860 5861 5864 5866 5866 5866 5867 5869 5870 5871 5875 5876 5876 5877 5877 5878 5878 5878 5879 5879 5879
5577 5585 5593 5600 5607 5614 5620 5626 5632 5640 5646 5652 5659 5665 5671 5678 5684 5690 5697 5702 5709 5715 5720 5727 5731 5737 5743 5746 5746 5749 5758 5766 5775 5782 5782 5786 5790 5793 5795 5797 5800 5802 5805 5810 5812 5815 5819 5820 5822 5825 5827 5829 5831 5836 5840 5842 5844 5845 5847 5849 5849 5848 5849 5853 5855 5854 5855 5857 5859 5862 5863 5864 5865 5866 5868 5868 5870 5872 5874 5875 5876 5876 5877 5877 5878 5878 5879 5878
5569 5577 5585 5593 5600 5607 5614 5621 5627 5634 5641 5647 5653 5660 5666 5673 5679 5686 5693 5698 5704 5710 5715 5721 5725 5732 5736 5738 5739 5742 5754 5764 5771 5778 5779 5783 5786 5789 5791 5793 5796 5799 5803 5806 5809 5812 5815 5817 5820 5822 5824 5828 5830 5834 5838 5838 5840 5843 5845 5846 5847 5847 5849 5853 5853 5852 5853 5854 5857 5859 5860 5862 5864 5865 5866 5867 5868 5871 5872 5873 5874 5875 5875 5876 5877 5878 5878 5878
5561 5568 5577 5586 5593 5601 5608 5615 5621 5628 5635 5642 5648 5655 5661 5667 5674 5682 5689 5694 5699 5705 5711 5715 5721 5726 5729 5735 5737 5740 5754 5763 5767 5773 5777 5779 5783 5785 5787 5790 5793 5797 5799 5802 5805 5808 5811 5815 5817 5820 5823 5826 5828 5831 5835 5835 5836 5841 5843 5842 5845 5847 5848 5852 5851 5849 5851 5852 5854 5856 5858 5860 5862 5864 5865 5865 5867 5869 5870 5871 5873 5873 5874 5875 5875 5877 5877 5878
5553 5560 5569 5578 5586 5594 5601 5609 5616 5623 5630 5636 5643 5650 5656 5662 5670 5677 5684 5690 5694 5699 5706 5710 5716 5720 5724 5730 5732 5738 5753 5757 5759 5768 5773 5775 5778 5780 5784 5787 5791 5793 5796 5798 5801 5805 5809 5812 5815 5817 5820 5822 5825 5829 5832 5832 5832 5838 5840 5838 5842 5845 5846 5849 5849 5847 5849 5849 5851 5853 5855 5858 5859 5862 5863 5863 5866 5867 5868 5869 5871 5872 5873 5874 5874 5875 5876 5877
5546 5553 5561 5570 5579 5587 5595 5603 5610 5617 5624 5631 5638 5645 5651 5658 5665 5671 5678 5685 5690 5694 5700 5705 5710 5714 5719 5724 5727 5737 5748 5750 5753 5759 5765 5771 5774 5777 5781 5785 5788 5790 5792 5795 5798 5802 5806 5809 5811 5813 5815 5819 5823 5826 5827 5828 5830 5836 5838 5835 5839 5844 5844 5846 5845 5845 5847 5847 5848 5850 5852 5854 5856 5861 5863 5862 5863 5864 5865 5868 5869 5870 5871 5872 5873 5874 5875 5876
5541 5547 5555 5562 5571 5580 5589 5597 5604 5612 5619 5625 5632 5640 5646 5653 5659 5667 5673 5680 5685 5689 5694 5700 5705 5711 5715 5718 5725 5735 5741 5744 5748 5752 5759 5766 5768 5771 5776 5780 5783 5786 5789 5791 5794 5798 5801 5805 5808 5810 5813 5818 5821 5822 5823 5826 5829 5832 5834 5833 5836 5841 5841 5841 5842 5844 5845 5845 5847 5848 5849 5852 5855 5859 5860 5858 5860 5862 5864 5866 5867 5868 5869 5871 5872 5873 5874 5875
5536 5543 5549 5556 5565 5573 5582 5591 5598 5606 5613 5620 5627 5634 5641 5648 5654 5661 5668 5675 5681 5685 5690 5695 5700 5706 5708 5713 5723 5730 5735 5739 5741 5746 5754 5759 5761 5765 5770 5773 5777 5780 5782 5786 5789 5793 5798 5802 5805 5807 5810 5814 5816 5816 5819 5824 5827 5829 5831 5831 5832 5835 5836 5839 5841 5842 5843 5845 5847 5847 5847 5851 5854 5857 5856 5856 5859 5861 5862 5864 5865 5866 5867 5869 5871 5872 5873 5874
5532 5538 5545 5552 5559 5567 5576 5584 5592 5600 5608 5614 5621 5629 5636 5643 5649 5655 5661 5667 5675 5682 5687 5690 5695 5699 5700 5709 5719 5723 5730 5734 5736 5741 5748 5753 5757 5760 5764 5768 5771 5774 5777 5781 5786 5790 5795 5798 5800 5802 5804 5808 5811 5813 5816 5820 5823 5826 5828 5827 5827 5829 5833 5838 5839 5839 5841 5844 5847 5845 5845 5851 5853 5853 5854 5855 5856 5858 5860 5861 5862 5864 5866 5867 5869 5870 5871 5872
5527 5534 5541 5547 5554 5562 5569 5578 5586 5594 5602 5610 5616 5624 5631 5637 5643 5649 5655 5662 5670 5677 5681 5684 5688 5691 5695 5704 5712 5717 5724 5729 5733 5738 5743 5749 5753 5755 5760 5765 5766 5769 5774 5779 5784 5787 5790 5792 5794 5796 5799 5803 5807 5809 5812 5816 5819 5822 5822 5822 5823 5826 5831 5836 5836 5837 5840 5843 5845 5843 5844 5850 5851 5849 5851 5854 5854 5855 5857 5858 5860 5863 5864 5866 5867 5868 5869 5870
5523 5530 5536 5543 5550 5556 5563 5572 5580 5588 5597 5605 5611 5618 5625 5631 5638 5644 5649 5658 5666 5671 5675 5677 5679 5684 5690 5698 5706 5712 5717 5724 5729 5734 5739 5744 5748 5751 5755 5758 5760 5765 5772 5777 5780 5783 5784 5787 5790 5792 5795 5799 5803 5805 5808 5812 5815 5817 5818 5818 5820 5823 5828 5831 5832 5835 5839 5840 5842 5841 5843 5847 5847 5846 5849 5852 5852 5851 5854 5856 5858 5860 5862 5864 5865 5865 5867 5868
5519 5526 5532 5539 5545 5552 5559 5566 5575 5584 5592 5599 5605 5612 5619 5626 5632 5638 5643 5650 5657 5662 5668 5671 5674 5679 5683 5691 5700 5707 5714 5721 5725 5729 5734 5739 5743 5745 5747 5751 5754 5762 5769 5772 5775 5778 5779 5782 5785 5788 5791 5795 5798 5801 5804 5807 5811 5813 5814 5815 5817 5820 5823 5827 5829 5834 5837 5838 5840 5839 5840 5844 5845 5845 5847 5849 5849 5849 5851 5853 5854 5857 5859 5861 5862 5863 5865 5866
5514 5521 5528 5535 5542 5548 5554 5561 5570 5578 5585 5593 5600 5606 5614 5620 5626 5631 5636 5642 5648 5654 5660 5663 5666 5669 5672 5683 5696 5706 5715 5718 5721 5726 5730 5734 5738 5739 5742 5745 5749 5758 5764 5765 5770 5772 5773 5778 5780 5783 5786 5790 5794 5797 5800 5805 5809 5812 5813 5813 5815 5817 5820 5824 5828 5832 5834 5835 5836 5836 5837 5842 5844 5843 5845 5846 5846 5846 5848 5850 5851 5854 5856 5859 5861 5862 5863 5864
5510 5517 5524 5532 5538 5544 5551 5557 5564 5571 5580 5587 5593 5600 5607 5611 5617 5622 5626 5633 5638 5643 5648 5652 5656 5660 5669 5684 5696 5705 5713 5714 5717 5723 5725 5727 5731 5734 5737 5739 5745 5753 5755 5758 5762 5764 5768 5772 5773 5776 5781 5787 5792 5796 5800 5805 5808 5810 5810 5810 5813 5816 5818 5823 5825 5827 5830 5831 5832 5833 5834 5839 5842 5841 5842 5844 5843 5844 5845 5847 5849 5852 5854 5856 5858 5860 5861 5862
5507 5514 5522 5529 5535 5542 5547 5553 5559 5567 5575 5581 5586 5591 5594 5598 5604 5610 5617 5625 5630 5637 5646 5652 5658 5665 5675 5686 5692 5700 5707 5708 5712 5717 5720 5722 5725 5730 5731 5734 5741 5744 5745 5752 5756 5760 5764 5764 5767 5775 5783 5788 5793 5796 5799 5802 5804 5806 5806 5807 5809 5813 5815 5820 5822 5822 5824 5827 5830 5831 5831 5835 5840 5840 5840 5841 5841 5842 5844 5846 5848 5850 5851 5852 5855 5857 5858 5860
5505 5511 5518 5526 5533 5539 5544 5550 5557 5564 5570 5575 5580 5583 5587 5594 5602 5610 5621 5628 5631 5638 5647 5652 5658 5665 5674 5681 5686 5694 5699 5700 5705 5711 5715 5718 5720 5721 5724 5729 5733 5735 5742 5748 5750 5754 5756 5758 5767 5777 5783 5787 5790 5793 5796 5798 5800 5802 5803 5804 5805 5809 5813 5817 5819 5817 5819 5824 5827 5829 5828 5831 5837 5839 5838 5839 5839 5841 5844 5844 5846 5847 5848 5849 5851 5853 5856 5857
5502 5508 5516 5523 5529 5535 5541 5548 5553 5559 5564 5568 5573 5579 5588 5597 5607 5619 5628 5630 5632 5637 5642 5647 5653 5661 5670 5676 5680 5686 5689 5693 5700 5704 5709 5712 5712 5712 5718 5725 5729 5735 5742 5741 5742 5746 5747 5756 5769 5776 5778 5781 5784 5788 5791 5793 5795 5797 5800 5801 5802 5806 5810 5812 5813 5813 5816 5821 5824 5825 5825 5827 5833 5836 5836 5837 5838 5840 5842 5842 5842 5844 5844 5846 5848 5850 5853 5854
5499 5505 5512 5519 5525 5531 5538 5544 5549 5556 5560 5563 5569 5578 5586 5595 5606 5615 5618 5620 5625 5630 5636 5641 5647 5656 5664 5670 5675 5678 5681 5687 5693 5698 5702 5705 5706 5708 5714 5720 5726 5733 5733 5732 5738 5742 5746 5760 5769 5770 5772 5775 5778 5781 5784 5786 5788 5791 5795 5797 5799 5802 5806 5808 5809 5810 5812 5817 5820 5820 5820 5823 5828 5833 5835 5836 5837 5838 5839 5839 5839 5841 5841 5843 5845 5847 5849 5852
5496 5502 5508 5515 5522 5527 5534 5540 5543 5548 5554 5560 5568 5575 5582 5591 5599 5603 5606 5611 5617 5623 5630 5636 5643 5651 5657 5664 5670 5672 5677 5683 5688 5693 5696 5700 5702 5704 5710 5716 5722 5724 5723 5730 5738 5741 5751 5763 5764 5765 5767 5768 5772 5774 5777 5779 5782 5786 5789 5793 5796 5797 5801 5805 5806 5806 5809 5814 5817 5817 5816 5819 5824 5829 5833 5834 5834 5835 5836 5837 5838 5839 5840 5842 5844 5846 5848 5849
5492 5498 5504 5511 5517 5523 5530 5533 5534 5541 5550 5556 5562 5568 5576 5585 5591 5596 5601 5607 5611 5616 5621 5628 5637 5644 5651 5658 5662 5667 5673 5678 5684 5688 5692 5696 5699 5702 5707 5712 5714 5714 5718 5729 5734 5739 5749 5755 5758 5761 5761 5763 5767 5769 5773 5776 5779 5781 5784 5789 5792 5793 5798 5802 5801 5801 5805 5810 5813 5814 5812 5815 5821 5826 5829 5831 5831 5833 5835 5836 5836 5838 5840 5841 5843 5844 5845 5846
5489 5494 5501 5507 5513 5519 5523 5526 5530 5537 5544 5549 5555 5561 5570 5580 5587 5591 5597 5600 5601 5605 5612 5621 5628 5635 5644 5651 5656 5662 5667 5671 5679 5683 5686 5692 5696 5700 5704 5705 5706 5709 5718 5726 5728 5733 5741 5746 5752 5754 5754 5759 5763 5765 5770 5774 5775 5777 5782 5787 5789 5792 5796 5797 5797 5798 5801 5806 5808 5810 5810 5811 5816 5823 5826 5828 5829 5831 5833 5834 5835 5837 5838 5839 5841 5841 5841 5842
5486 5491 5497 5503 5510 5515 5518 5523 5529 5533 5538 5544 5550 5556 5564 5575 5581 5585 5590 5591 5590 5597 5609 5617 5623 5631 5641 5646 5652 5656 5658 5666 5674 5676 5682 5690 5693 5696 5698 5699 5702 5708 5715 5719 5717 5724 5735 5740 5744 5747 5750 5755 5756 5761 5768 5771 5771 5774 5780 5784 5785 5790 5793 5793 5793 5794 5797 5802 5803 5807 5809 5808 5810 5819 5824 5824 5825 5828 5830 5833 5834 5834 5835 5835 5837 5838 5838 5839
5483 5488 5494 5501 5507 5512 5517 5523 5528 5531 5536 5542 5547 5554 5562 5568 5572 5577 5581 5579 5581 5594 5605 5611 5621 5631 5638 5642 5646 5648 5652 5663 5669 5672 5681 5686 5687 5691 5693 5696 5702 5708 5712 5711 5713 5726 5734 5735 5739 5743 5745 5746 5752 5760 5765 5766 5768 5771 5778 5781 5782 5786 5787 5787 5789 5789 5792 5797 5799 5803 5807 5805 5806 5814 5821 5821 5821 5825 5829 5831 5831 5831 5832 5832 5833 5835 5836 5836
5481 5486 5491 5497 5503 5508 5513 5518 5523 5528 5533 5540 5545 5553 5560 5562 5563 5570 5572 5570 5580 5595 5602 5608 5618 5624 5629 5635 5639 5642 5648 5656 5662 5671 5678 5679 5680 5684 5688 5693 5700 5706 5707 5708 5717 5726 5727 5730 5736 5738 5739 5743 5751 5756 5759 5762 5765 5768 5773 5775 5775 5778 5780 5782 5784 5785 5788 5790 5795 5801 5803 5802 5802 5807 5815 5818 5819 5822 5826 5827 5827 5829 5830 5829 5830 5831 5833 5834
5478 5483 5488 5492 5497 5503 5508 5513 5519 5525 5532 5539 5543 5549 5555 5555 5555 5559 5559 5564 5578 5590 5596 5605 5611 5615 5622 5628 5632 5637 5642 5648 5658 5667 5671 5672 5676 5679 5684 5691 5697 5701 5702 5705 5712 5716 5720 5727 5730 5729 5734 5743 5748 5750 5754 5758 5760 5763 5766 5767 5770 5773 5776 5779 5780 5783 5783 5784 5793 5799 5798 5799 5799 5801 5808 5814 5819 5820 5821 5823 5824 5826 5827 5827 5827 5828 5830 5831
5476 5480 5484 5489 5493 5499 5506 5511 5516 5524 5531 5535 5537 5542 5545 5546 5549 5549 5551 5564 5579 5584 5590 5599 5604 5611 5619 5624 5629 5634 5638 5643 5653 5659 5664 5669 5671 5673 5679 5684 5689 5694 5696 5698 5703 5706 5713 5718 5720 5724 5732 5739 5742 5744 5748 5750 5753 5758 5759 5762 5767 5770 5772 5775 5776 5778 5777 5781 5790 5794 5793 5793 5795 5798 5802 5810 5819 5819 5817 5819 5821 5822 5823 5824 5825 5826 5827 5828
5475 5479 5482 5487 5492 5498 5504 5509 5516 5523 5527 5530 5533 5537 5539 5540 5541 5542 5551 5569 5577 5576 5585 5595 5600 5608 5615 5621 5627 5632 5634 5639 5647 5652 5658 5664 5666 5668 5673 5677 5683 5687 5686 5690 5696 5701 5706 5711 5717 5722 5727 5731 5734 5735 5738 5739 5744 5750 5754 5758 5762 5764 5766 5767 5769 5771 5773 5780 5787 5787 5786 5786 5791 5798 5799 5803 5815 5818 5814 5815 5817 5818 5820 5821 5822 5823 5824 5825
5473 5477 5481 5486 5492 5498 5503 5508 5514 5518 5522 5527 5530 5533 5535 5534 5534 5539 5553 5567 5568 5571 5583 5593 5600 5607 5611 5615 5620 5625 5630 5635 5643 5649 5654 5660 5663 5666 5670 5675 5681 5681 5682 5689 5693 5697 5703 5706 5710 5714 5717 5722 5724 5726 5729 5734 5741 5748 5752 5754 5756 5757 5757 5759 5762 5765 5769 5777 5781 5781 5779 5781 5789 5797 5797 5798 5808 5814 5813 5812 5813 5814 5815 5817 5818 5820 5821 5821
5471 5476 5481 5487 5492 5497 5502 5506 5510 5515 5519 5523 5525 5528 5529 5529 5534 5544 5553 5561 5564 5571 5580 5589 5598 5603 5605 5609 5615 5621 5626 5630 5637 5644 5649 5654 5656 5659 5664 5669 5674 5678 5682 5685 5687 5691 5696 5696 5699 5706 5712 5715 5718 5723 5730 5737 5742 5746 5750 5752 5751 5751 5752 5755 5759 5762 5767 5773 5775 5774 5772 5777 5788 5794 5795 5796 5802 5809 5809 5808 5809 5810 5811 5813 5814 5815 5817 5817
5471 5475 5481 5486 5491 5496 5500 5503 5508 5512 5516 5518 5520 5522 5524 5528 5537 5544 5549 5557 5563 5568 5575 5584 5593 5597 5599 5605 5611 5617 5622 5627 5633 5638 5643 5647 5650 5655 5659 5663 5669 5674 5677 5678 5681 5687 5691 5692 5699 5706 5710 5713 5715 5719 5726 5730 5732 5736 5742 5743 5743 5746 5750 5752 5754 5758 5764 5766 5766 5767 5768 5776 5785 5788 5792 5793 5796 5803 5805 5805 5807 5807 5808 5809 5809 5811 5812 5813
5469 5474 5479 5484 5489 5493 5497 5500 5505 5509 5512 5514 5516 5518 5523 5531 5538 5542 5548 5555 5561 5567 5573 5579 5586 5590 5592 5597 5603 5609 5615 5622 5627 5632 5637 5642 5645 5651 5655 5660 5666 5670 5672 5674 5678 5684 5687 5690 5698 5703 5707 5710 5711 5715 5721 5722 5723 5727 5730 5731 5737 5744 5745 5744 5747 5752 5755 5755 5758 5763 5767 5773 5779 5781 5786 5789 5792 5798 5801 5801 5803 5804 5804 5805 5806 5807 5808 5808
5466 5472 5477 5481 5486 5490 5494 5498 5502 5505 5509 5511 5514 5518 5526 5532 5536 5541 5546 5552 5558 5564 5568 5572 5577 5582 5587 5590 5595 5602 5607 5613 5619 5624 5629 5635 5639 5645 5650 5656 5662 5665 5669 5673 5677 5682 5685 5688 5693 5696 5700 5703 5706 5712 5716 5717 5719 5722 5724 5729 5737 5739 5736 5738 5743 5746 5748 5749 5755 5761 5764 5769 5773 5776 5782 5786 5789 5794 5797 5797 5798 5799 5800 5801 5802 5803 5803 5804
5465 5470 5475 5479 5484 5488 5492 5495 5499 5503 5506 5508 5513 5519 5524 5529 5533 5539 5543 5548 5554 5558 5561 5565 5571 5578 5584 5587 5592 5599 5603 5608 5613 5617 5622 5628 5633 5639 5646 5652 5658 5662 5667 5672 5675 5678 5680 5684 5688 5690 5694 5697 5700 5704 5707 5709 5712 5715 5721 5729 5731 5730 5732 5736 5739 5742 5745 5746 5750 5757 5760 5762 5766 5772 5778 5782 5786 5791 5792 5792 5793 5794 5795 5796 5798 5799 5799 5800
5464 5468 5472 5477 5481 5485 5489 5493 5497 5500 5502 5506 5512 5517 5522 5527 5531 5535 5540 5545 5550 5553 5557 5562 5568 5575 5581 5585 5590 5596 5600 5605 5609 5613 5618 5623 5629 5638 5645 5650 5655 5660 5665 5669 5671 5673 5676 5679 5681 5686 5690 5692 5694 5694 5696 5703 5705 5707 5715 5721 5721 5723 5728 5731 5735 5739 5741 5742 5746 5751 5753 5756 5764 5771 5773 5778 5784 5787 5787 5788 5789 5790 5791 5792 5793 5794 5795 5796
5462 5466 5470 5475 5479 5483 5487 5490 5494 5497 5501 5507 5512 5515 5520 5524 5527 5531 5536 5541 5545 5548 5554 5559 5565 5572 5577 5581 5586 5591 5595 5601 5606 5610 5614 5620 5628 5636 5641 5645 5651 5658 5662 5665 5668 5669 5672 5674 5676 5681 5683 5682 5684 5687 5693 5701 5701 5702 5710 5714 5716 5719 5721 5724 5728 5732 5734 5736 5740 5743 5744 5751 5763 5767 5768 5773 5779 5781 5782 5784 5786 5786 5786 5788 5789 5789 5789 5790
5460 5464 5468 5472 5476 5480 5484 5488 5492 5495 5500 5505 5508 5512 5516 5519 5524 5528 5533 5537 5541 5545 5551 5558 5562 5567 5573 5577 5580 5585 5590 5595 5601 5605 5610 5616 5623 5629 5636 5644 5650 5655 5658 5659 5661 5664 5666 5668 5670 5674 5675 5675 5682 5689 5694 5697 5698 5702 5708 5711 5714 5716 5716 5717 5719 5725 5730 5732 5736 5739 5738 5748 5761 5761 5763 5769 5773 5776 5778 5780 5782 5782 5782 5782 5783 5784 5784 5785
5459 5462 5466 5470 5474 5478 5482 5486 5490 5494 5498 5502 5506 5511 5514 5518 5522 5525 5529 5534 5538 5542 5549 5555 5559 5563 5568 5573 5576 5580 5585 5590 5596 5601 5606 5612 5619 5627 5637 5644 5647 5650 5652 5654 5658 5661 5661 5663 5666 5668 5670 5673 5679 5685 5688 5690 5694 5699 5700 5703 5707 5707 5708 5712 5715 5724 5729 5729 5735 5736 5731 5744 5758 5758 5760 5764 5767 5771 5774 5774 5776 5777 5777 5777 5776 5778 5778 5779
5458 5461 5465 5469 5472 5476 5480 5484 5488 5492 5496 5500 5504 5507 5510 5514 5518 5522 5527 5532 5536 5541 5546 5551 5554 5557 5562 5567 5571 5575 5581 5586 5591 5597 5603 5610 5618 5625 5631 5635 5639 5642 5645 5648 5652 5654 5655 5657 5660 5663 5665 5668 5672 5678 5682 5685 5687 5687 5689 5695 5699 5699 5705 5711 5714 5720 5721 5721 5729 5727 5724 5740 5754 5754 5756 5758 5760 5766 5768 5768 5770 5770 5771 5771 5770 5771 5773 5773
5456 5459 5463 5467 5471 5474 5479 5483 5486 5489 5492 5495 5498 5502 5507 5512 5516 5520 5526 5530 5534 5539 5543 5547 5551 5554 5558 5562 5566 5571 5577 5581 5586 5593 5600 5607 5613 5618 5621 5627 5632 5634 5638 5643 5646 5649 5651 5651 5654 5657 5659 5661 5664 5668 5672 5674 5677 5680 5687 5693 5696 5699 5705 5707 5709 5712 5710 5713 5720 5717 5720 5737 5746 5747 5751 5751 5752 5760 5763 5762 5763 5764 5765 5765 5764 5765 5766 5768
5454 5457 5461 5465 5469 5473 5476 5479 5482 5486 5491 5495 5499 5503 5507 5512 5516 5520 5524 5527 5531 5535 5539 5543 5546 5550 5553 5556 5561 5566 5571 5575 5581 5587 5595 5601 5608 5612 5615 5621 5626 5630 5636 5641 5643 5646 5646 5645 5648 5651 5651 5653 5657 5661 5666 5671 5676 5680 5685 5690 5693 5696 5698 5699 5702 5701 5699 5708 5713 5708 5716 5734 5739 5740 5744 5745 5748 5754 5756 5756 5757 5759 5760 5760 5758 5759 5760 5762
5452 5456 5459 5463 5467 5471 5474 5478 5482 5487 5491 5495 5499 5502 5507 5511 5514 5518 5521 5524 5527 5531 5535 5539 5542 5544 5547 5552 5557 5561 5564 5569 5575 5581 5589 5597 5603 5606 5610 5615 5621 5627 5633 5635 5637 5640 5639 5639 5643 5646 5649 5654 5658 5663 5668 5672 5674 5677 5683 5687 5688 5688 5689 5690 5690 5689 5696 5706 5703 5701 5715 5729 5732 5735 5740 5741 5744 5748 5749 5751 5753 5754 5755 5754 5753 5754 5754 5755
5451 5454 5458 5462 5465 5469 5472 5477 5481 5485 5489 5491 5495 5499 5503 5506 5508 5512 5516 5520 5524 5527 5530 5533 5537 5540 5544 5549 5554 5557 5560 5564 5569 5575 5584 5594 5599 5602 5606 5610 5615 5623 5628 5628 5631 5632 5631 5633 5638 5641 5647 5653 5655 5658 5662 5665 5667 5673 5678 5680 5681 5683 5683 5682 5682 5688 5699 5699 5694 5703 5717 5721 5726 5735 5736 5735 5738 5741 5744 5746 5748 5749 5749 5748 5748 5747 5747 5747
5448 5452 5456 5460 5463 5467 5471 5475 5478 5480 5483 5486 5490 5493 5496 5499 5503 5508 5513 5516 5519 5522 5525 5529 5534 5538 5543 5548 5552 5555 5558 5561 5565 5571 5581 5592 5597 5599 5602 5605 5610 5617 5621 5621 5624 5626 5624 5627 5634 5638 5643 5647 5649 5651 5655 5657 5661 5666 5669 5671 5674 5676 5676 5677 5681 5690 5695 5690 5692 5709 5716 5713 5721 5732 5733 5731 5731 5733 5736 5738 5740 5742 5741 5740 5739 5739 5739 5741
5446 5449 5453 5456 5459 5463 5467 5470 5473 5476 5478 5482 5486 5489 5493 5497 5501 5506 5510 5513 5516 5520 5523 5527 5533 5538 5542 5546 5549 5551 5554 5559 5565 5571 5581 5591 5594 5595 5598 5601 5605 5611 5614 5614 5618 5619 5619 5623 5629 5633 5636 5640 5643 5645 5648 5651 5654 5657 5660 5664 5667 5668 5669 5673 5678 5685 5687 5685 5694 5707 5707 5706 5716 5724 5724 5723 5722 5722 5726 5730 5732 5734 5734 5732 5732 5732 5734 5737
5442 5445 5449 5452 5456 5459 5461 5465 5469 5473 5477 5481 5484 5489 5493 5497 5501 5505 5508 5511 5515 5519 5522 5527 5533 5537 5540 5542 5544 5547 5552 5558 5565 5572 5579 5586 5589 5591 5595 5598 5602 5606 5607 5609 5612 5613 5615 5618 5623 5627 5630 5631 5635 5640 5643 5645 5648 5651 5654 5658 5660 5662 5664 5667 5673 5680 5681 5682 5692 5700 5696 5698 5710 5714 5712 5713 5714 5715 5719 5722 5725 5727 5727 5727 5727 5728 5730 5733
5438 5442 5445 5449 5453 5456 5459 5463 5466 5469 5473 5477 5483 5489 5492 5497 5503 5505 5507 5510 5514 5517 5522 5528 5531 5532 5534 5536 5538 5544 5550 5555 5562 5567 5573 5579 5584 5587 5588 5591 5595 5598 5600 5604 5607 5609 5612 5613 5617 5621 5620 5623 5631 5636 5638 5641 5643 5642 5644 5649 5653 5656 5660 5666 5673 5678 5679 5680 5688 5691 5688 5696 5707 5707 5704 5707 5710 5710 5713 5717 5719 5720 5721 5721 5722 5723 5725 5729
5435 5438 5442 5445 5448 5451 5455 5459 5462 5466 5472 5478 5484 5488 5491 5496 5500 5499 5502 5507 5512 5516 5521 5525 5526 5526 5528 5530 5536 5544 5549 5552 5558 5562 5565 5570 5575 5576 5578 5584 5588 5590 5594 5597 5600 5604 5607 5608 5611 5612 5613 5621 5628 5630 5634 5637 5631 5629 5636 5646 5652 5656 5661 5665 5669 5673 5674 5676 5679 5681 5686 5697 5701 5698 5699 5703 5705 5707 5710 5713 5712 5712 5713 5714 5716 5718 5720 5723